Probability
0 0 0 0 0 0 0 0 0 0 0 0 0 0 0 0 0 0 0 0 0 0 0 0 0 0 0 0 0 0 1 2 2 3 3 3 2 1 0 0 0 0 0 0
0 0 0 0 0 0 0 0 0 0 0 0 0 0 0 0 0 0 0 0 0 0 0 0 0 0 0 0 0 0 0 1 1 2 3 2 1 0 0 0 0 0 0 0
0 0 0 0 0 0 0 0 0 0 0 0 0 0 0 0 0 0 0 0 0 0 0 0 0 0 0 0 0 0 0 0 0 1 2 1 0 0 0 0 0 0 0 0
0 0 0 0 0 0 0 0 0 0 0 0 0 0 0 0 0 0 0 0 0 0 0 0 0 0 0 0 0 0 0 0 0 1 2 1 0 0 0 0 0 0 0 0
0 0 0 0 0 0 0 0 0 0 0 0 0 0 0 0 0 0 0 0 0 0 0 0 0 0 0 0 0 0 0 0 1 2 2 1 0 0 0 0 0 0 0 0
0 0 0 0 0 0 0 0 0 0 0 0 0 0 0 0 0 0 0 0 0 0 0 0 0 0 0 0 0 0 0 0 1 2 3 1 0 0 0 0 0 0 0 0
0 0 0 0 0 0 0 0 0 0 0 0 0 0 0 0 0 0 0 0 0 0 0 0 0 0 0 0 0 0 0 0 1 2 3 2 1 0 0 0 0 0 0 0
0 0 0 0 0 0 0 0 0 0 0 0 0 0 0 0 0 0 0 0 0 0 0 0 0 0 0 0 0 0 0 0 0 1 2 1 1 0 0 0 0 0 0 0
0 0 0 0 0 0 0 0 0 0 0 0 0 0 0 0 0 0 0 0 0 0 0 0 0 0 0 0 0 0 0 0 0 0 0 0 0 0 0 0 0 0 0 0
0 0 0 0 0 0 0 0 0 0 0 0 0 0 0 0 0 0 0 0 0 0 0 0 0 0 0 0 0 0 0 0 0 0 0 0 0 0 0 0 0 0 0 0
0 0 0 0 0 0 0 0 0 0 0 0 0 0 0 0 0 0 0 0 0 0 0 0 0 0 0 0 0 0 0 0 0 0 0 0 0 0 0 0 0 0 0 0
0 0 0 0 0 0 0 0 0 0 0 0 0 0 0 0 0 0 0 0 0 0 0 0 0 0 0 0 0 0 0 0 0 0 0 0 0 0 0 0 0 0 0 0
0 0 0 0 0 0 0 0 0 0 0 0 0 0 0 0 0 0 0 0 0 0 0 0 0 0 0 0 0 0 0 0 0 0 0 0 0 0 0 0 0 0 0 0
0 0 0 0 0 0 0 0 0 0 0 0 0 0 0 0 0 0 0 0 0 0 0 0 0 0 0 0 0 0 0 0 0 0 0 0 0 0 0 0 0 0 0 0
0 0 0 0 0 0 0 0 0 0 0 0 0 0 0 0 0 0 0 0 0 0 0 0 0 0 0 0 0 0 0 0 0 0 0 0 0 0 0 0 0 0 0 0
0 0 0 0 0 0 0 0 0 0 0 0 0 0 0 0 0 0 0 0 0 0 0 0 0 0 0 0 0 0 0 0 0 0 0 0 0 0 0 0 0 0 0 0
0 0 0 0 0 0 0 0 0 0 0 0 0 0 0 0 0 0 0 0 0 0 0 0 0 0 0 0 0 0 0 0 0 0 0 0 0 0 0 0 0 0 0 0
0 0 0 0 0 0 0 0 0 0 0 0 0 0 0 0 0 0 0 0 0 0 0 0 0 0 0 0 0 0 0 0 0 0 0 0 0 0 0 0 0 0 0 0
0 0 0 0 0 0 0 0 0 0 0 0 0 0 0 0 0 0 0 0 0 0 0 0 0 0 0 0 0 0 0 0 0 0 0 0 0 0 0 0 0 0 0 0
0 0 0 0 0 0 0 0 0 0 0 0 0 0 0 0 0 0 0 0 0 0 0 0 0 0 0 0 0 0 0 0 0 0 0 0 0 0 0 0 0 0 0 0
0 0 0 0 0 0 0 0 0 0 0 0 0 0 0 0 0 0 0 0 0 0 0 0 0 0 0 0 0 0 0 0 0 0 0 0 0 0 0 0 0 0 0 0
0 0 0 0 0 0 0 0 0 0 0 0 0 0 0 0 0 0 0 0 0 0 0 0 0 0 0 0 0 0 0 0 0 0 0 0 0 0 0 0 0 0 0 0
0 0 0 0 0 0 0 0 0 0 0 0 0 0 0 0 0 0 0 0 0 0 0 0 0 0 0 0 0 0 0 0 0 0 0 0 0 0 0 0 0 0 0 0
0 0 0 0 0 0 0 0 0 0 0 0 0 0 0 0 0 0 0 0 0 0 0 0 0 0 0 0 0 0 0 0 0 0 0 0 0 0 0 0 0 0 0 0
0 0 0 0 0 0 0 0 0 0 0 0 0 0 0 0 0 0 0 0 0 0 0 0 0 0 0 0 0 0 0 0 0 0 0 0 0 0 0 0 0 0 0 0
0 0 0 0 0 0 0 0 0 0 0 0 0 0 0 0 0 0 0 0 0 0 0 0 0 0 0 0 0 0 0 0 0 0 0 0 0 0 0 0 0 0 0 0
Wind_Speed
1 3 6 7 7 4 4 5 7 6 3 6 10 12 11 8 8 9 8 7 6 5 3 2 2 2 2 2 2 2 2 2 2 2 2 2 1 1 1 1 1 0 1 1
3 5 5 3 4 4 5 6 7 5 3 5 9 13 11 10 9 8 8 8 7 5 4 2 2 2 2 2 2 2 3 2 2 2 1 1 1 1 0 0 0 0 0 1
5 1 2 4 5 5 6 8 7 5 4 4 8 10 8 7 7 7 8 8 7 6 5 4 3 2 2 2 3 2 2 2 2 2 2 2 1 1 1 0 0 0 0 1
3 1 2 4 5 5 7 5 6 6 5 4 4 8 7 5 6 7 7 7 6 6 5 4 4 3 2 2 2 2 2 2 2 3 3 3 2 1 1 1 1 1 0 1
2 2 2 4 4 5 3 1 4 6 6 6 5 7 7 3 6 7 6 6 5 5 5 4 4 3 2 2 2 2 2 2 2 2 3 3 2 1 1 1 1 1 1 1
1 1 2 2 1 3 2 1 1 3 4 7 7 8 8 4 5 4 3 3 3 3 3 3 3 2 2 2 2 2 3 2 2 2 2 3 3 3 2 2 2 1 1 1
2 2 1 1 1 2 3 3 2 3 5 6 3 8 9 2 2 2 3 3 2 2 2 2 3 3 3 2 2 2 3 2 2 2 2 2 3 3 3 2 2 2 1 1
4 4 3 2 3 4 5 5 4 5 5 4 4 9 5 0 0 1 2 2 2 2 2 2 2 3 3 2 2 2 2 2 2 2 1 1 2 2 2 2 2 3 2 2
4 3 1 1 0 2 4 5 2 1 1 4 6 6 6 2 2 1 1 1 2 2 2 2 2 2 2 3 2 2 2 2 2 2 2 2 2 2 2 3 3 2 2 2
2 3 2 1 2 1 2 3 3 4 5 6 6 7 5 3 3 3 2 2 2 2 2 2 2 2 2 2 2 2 2 2 1 1 1 1 1 2 2 2 3 3 3 3
2 3 2 3 6 6 4 4 4 3 3 5 6 5 1 3 2 2 3 3 2 2 2 2 1 1 1 1 1 2 2 2 1 1 1 2 1 2 2 2 3 3 3 3
2 2 3 4 1 2 4 5 6 5 5 5 6 6 2 1 1 2 3 2 2 2 2 2 1 1 1 1 1 2 2 2 2 2 2 2 2 2 2 3 3 3 4 3
3 3 2 2 3 2 4 4 4 2 3 5 7 7 2 1 3 3 3 3 2 2 2 2 2 2 2 2 1 2 2 2 2 2 2 2 2 2 3 3 3 3 3 4
2 3 6 7 3 3 5 6 6 5 6 8 11 12 8 7 7 6 4 3 3 2 3 3 3 2 2 2 2 2 2 2 2 2 2 2 2 3 3 3 3 3 3 4
2 4 4 6 5 4 7 9 9 11 11 11 11 12 14 10 8 6 4 3 3 4 4 4 3 3 2 2 3 2 2 2 2 2 2 2 2 3 3 3 3 3 3 3
2 3 2 5 4 6 9 12 13 14 14 15 16 17 13 9 5 5 4 4 5 5 5 4 4 3 3 3 3 3 3 2 2 2 2 2 2 2 3 3 3 3 3 3
4 4 3 5 3 5 11 12 14 11 11 12 15 13 6 6 5 5 5 5 6 6 5 5 4 4 4 3 3 3 3 2 2 2 2 2 2 3 3 3 3 3 4 4
6 5 3 2 1 11 7 2 8 10 11 11 10 8 7 7 6 5 5 6 6 5 5 4 4 4 3 3 3 3 2 2 2 2 3 3 3 3 3 3 3 4 4 4
6 6 4 4 6 10 8 4 5 8 9 9 10 10 8 5 5 5 4 5 5 5 4 4 3 3 2 2 2 2 2 2 2 3 3 3 3 3 4 4 4 4 4 4
4 4 4 5 7 10 5 1 2 3 7 4 7 8 5 2 5 4 0 2 3 3 2 2 2 2 2 2 2 2 3 3 3 4 3 3 3 4 4 4 4 4 4 5
6 5 8 8 9 11 4 2 4 6 5 1 4 6 5 6 6 3 1 2 2 2 2 1 2 2 2 2 2 3 3 3 4 3 3 3 3 4 4 4 4 4 4 4
10 9 9 7 9 11 4 6 8 5 1 2 3 4 5 6 4 3 3 3 3 2 1 1 1 2 2 1 2 3 3 3 3 3 3 3 3 3 3 3 3 4 4 4
10 9 7 11 9 3 6 7 4 2 3 3 3 4 4 4 5 4 4 3 3 2 2 1 1 2 2 1 2 3 3 3 3 3 3 3 3 3 3 3 3 3 3 3
6 3 5 7 10 7 7 7 5 4 5 4 4 3 4 5 5 4 4 3 3 2 1 1 1 2 2 2 2 3 3 3 3 3 3 3 3 3 2 2 3 3 3 3
7 7 6 8 8 6 7 8 8 6 5 4 4 4 5 5 5 5 4 3 3 2 1 1 2 3 3 3 3 3 3 3 3 3 3 3 3 3 3 3 3 4 4 4
6 8 9 8 5 6 5 3 4 5 6 5 5 5 4 4 5 4 3 3 2 2 2 2 3 3 3 3 3 3 3 3 3 3 3 3 3 3 3 3 3 4 6 7
Wind_Direction
97 185 206 210 218 242 219 228 245 260 273 261 256 261 263 255 245 247 248 247 247 249 250 244 246 226 209 196 188 187 176 174 171 170 172 175 173 143 138 111 87 150 146 150
161 220 228 208 198 207 218 233 251 267 271 267 274 271 265 252 245 247 247 245 245 248 240 228 227 206 196 190 189 188 185 178 177 176 167 177 170 153 143 83 96 44 152 171
200 211 197 185 190 210 231 237 244 259 283 255 284 268 245 237 241 245 245 243 243 239 237 229 215 206 190 187 192 187 184 178 174 164 145 141 143 161 172 116 22 353 310 203
217 231 196 199 216 223 242 238 239 246 256 261 271 277 253 240 248 241 237 233 236 234 230 227 218 205 199 196 185 180 175 173 169 166 167 172 180 187 222 252 268 277 266 257
201 189 194 220 240 227 243 229 230 240 245 259 235 257 264 219 250 248 240 236 236 232 226 222 218 209 199 188 176 172 163 162 163 170 178 182 188 193 204 217 238 253 235 252
227 231 250 243 282 209 181 167 190 220 231 248 231 238 265 218 231 239 230 233 236 232 225 218 206 194 189 177 168 166 161 162 165 173 181 190 193 198 201 214 231 253 253 250
235 215 197 203 167 169 204 199 220 221 224 240 199 234 252 236 216 242 253 243 233 218 211 203 198 194 192 182 178 178 170 172 177 180 190 207 213 211 212 220 229 243 251 257
207 227 192 196 207 201 207 221 229 241 244 253 208 236 245 102 266 271 277 261 242 218 211 208 210 209 204 202 200 198 191 187 188 192 199 213 222 225 226 229 241 241 249 255
209 227 123 192 249 204 190 213 258 246 305 269 242 256 275 213 238 239 251 258 242 228 218 217 215 219 221 218 219 217 208 199 199 205 204 207 220 230 235 236 239 245 251 261
194 227 239 219 174 197 255 175 184 206 225 250 257 251 243 213 222 218 236 245 247 246 237 227 215 218 238 242 227 220 219 213 214 212 215 222 234 243 247 243 244 246 255 257
201 199 231 207 211 206 178 190 210 213 242 244 258 256 224 202 201 219 237 247 252 255 255 251 245 239 242 260 250 228 223 224 225 225 223 219 229 244 249 249 253 251 253 255
192 201 233 240 271 300 235 217 201 215 222 234 259 267 86 200 289 276 280 276 263 257 261 271 274 277 267 269 285 267 242 235 240 237 240 239 236 239 245 254 259 256 253 253
162 177 215 233 205 199 228 221 217 221 212 218 234 254 103 316 296 288 286 285 277 270 275 272 275 265 258 262 270 280 272 257 247 240 234 240 247 249 254 261 263 258 254 255
176 206 228 242 259 196 226 226 212 208 227 237 240 261 276 286 294 300 297 290 282 271 271 269 264 257 255 262 265 269 276 273 251 236 232 243 253 257 259 263 262 256 254 256
193 226 240 271 277 256 247 239 222 224 233 244 257 261 272 283 288 293 298 296 287 276 269 264 265 266 261 265 269 271 274 272 260 241 235 247 262 268 265 262 259 257 257 259
193 216 226 267 265 264 263 249 235 238 241 248 264 270 278 293 285 277 272 267 268 270 265 264 264 264 263 263 268 272 274 272 260 249 249 254 258 262 264 265 262 257 255 258
185 176 211 256 290 281 258 235 221 225 227 228 243 257 281 279 267 265 267 260 259 265 267 263 260 260 264 265 257 259 266 262 248 250 259 262 256 256 262 267 264 259 258 258
187 186 212 245 231 242 251 226 216 225 240 235 251 267 274 276 288 277 267 260 263 265 266 265 263 264 272 275 265 258 256 245 238 245 255 260 258 257 263 264 262 266 264 258
205 192 193 204 241 266 278 235 196 212 251 230 236 257 276 308 294 265 251 247 253 263 265 268 267 264 270 269 264 251 249 251 251 257 263 266 259 258 260 259 262 265 264 262
193 198 198 203 232 248 255 152 168 188 255 227 221 242 255 251 271 284 320 266 266 267 269 271 274 267 264 270 257 241 246 248 259 266 269 269 262 257 257 260 264 264 260 261
180 195 210 220 242 260 258 159 165 210 256 196 218 229 219 228 261 311 306 277 266 267 271 266 262 259 262 264 247 246 251 258 272 277 274 270 261 258 259 263 262 261 258 260
186 190 203 204 227 248 162 159 204 244 329 228 241 234 232 248 265 269 266 265 264 271 276 264 264 276 282 269 245 253 263 278 283 278 272 270 268 265 260 258 263 261 257 257
209 205 200 205 225 266 176 211 246 292 266 261 260 256 244 252 261 266 269 263 262 264 269 278 272 294 305 295 261 260 278 290 280 274 272 274 277 273 267 258 258 258 253 253
225 227 220 239 251 250 238 250 267 268 265 277 275 260 245 251 261 264 262 257 258 261 266 275 266 278 290 294 286 276 285 287 271 264 270 273 273 272 270 266 261 257 254 252
212 191 215 242 264 281 255 245 256 261 265 271 269 258 249 251 259 260 260 255 254 259 265 252 252 264 279 292 294 300 296 281 268 268 270 274 271 274 275 270 264 262 259 258
198 197 207 234 228 231 257 256 249 253 263 265 265 265 260 249 252 255 255 256 256 259 273 268 268 273 283 288 292 300 300 287 269 267 271 273 274 275 273 275 280 273 270 279